| time (UTC) | temp C | wind direction | speed KPH | gust KPH | rain 1hr cm | rain 24hr cm | rain mn cm | humidity % | barometer mb |
| 20260505101548 | 11 | 10 | 4.8 | 0.0 | 0.00 | 0.00 | 0.00 | 96 | 1018.0 |
| 20260505100547 | 11 | 10 | 4.8 | 0.0 | 0.00 | 0.00 | 0.00 | 95 | 1018.0 |
| 20260505095547 | 11 | 0 | 3.2 | 0.0 | 0.00 | 0.00 | 0.00 | 94 | 1018.0 |
| 20260505094546 | 11 | 0 | 3.2 | 0.0 | 0.00 | 0.00 | 0.00 | 94 | 1018.0 |
| 20260505093545 | 11 | 0 | 3.2 | 0.0 | 0.00 | 0.00 | 0.00 | 94 | 1018.0 |
| 20260505092545 | 11 | 0 | 3.2 | 0.0 | 0.00 | 0.00 | 0.00 | 94 | 1018.0 |
| 20260505091544 | 11 | 0 | 3.2 | 0.0 | 0.00 | 0.00 | 0.00 | 94 | 1018.0 |
| 20260505090544 | 11 | 80 | 4.8 | 0.0 | 0.00 | 0.00 | 0.00 | 94 | 1018.0 |
| 20260505085543 | 11 | 80 | 4.8 | 0.0 | 0.00 | 0.00 | 0.00 | 94 | 1018.0 |
| 20260505084543 | 11 | 80 | 4.8 | 0.0 | 0.00 | 0.00 | 0.00 | 94 | 1018.0 |
| 20260505083542 | 11 | 80 | 4.8 | 0.0 | 0.00 | 0.00 | 0.00 | 94 | 1018.0 |
| 20260505082541 | 11 | 80 | 4.8 | 0.0 | 0.00 | 0.00 | 0.00 | 94 | 1018.0 |
| 20260505081541 | 11 | 80 | 4.8 | 0.0 | 0.00 | 0.00 | 0.00 | 94 | 1018.0 |
| 20260505080540 | 11 | 80 | 4.8 | 0.0 | 0.00 | 0.00 | 0.00 | 95 | 1018.0 |
| 20260505075540 | 11 | 360 | 4.8 | 0.0 | 0.00 | 0.00 | 0.00 | 95 | 1018.0 |
| 20260505074539 | 11 | 360 | 4.8 | 0.0 | 0.00 | 0.00 | 0.00 | 95 | 1018.0 |
| 20260505073539 | 11 | 360 | 4.8 | 0.0 | 0.00 | 0.00 | 0.00 | 94 | 1018.0 |
| 20260505072538 | 11 | 360 | 4.8 | 0.0 | 0.00 | 0.00 | 0.00 | 93 | 1019.0 |
| 20260505070537 | 11 | 360 | 4.8 | 0.0 | 0.00 | 0.00 | 0.00 | 90 | 1019.0 |
| 20260505065536 | 11 | 0 | 1.6 | 0.0 | 0.00 | 0.00 | 0.00 | 88 | 1019.0 |
| 20260505064536 | 11 | 0 | 1.6 | 0.0 | 0.00 | 0.00 | 0.00 | 88 | 1019.0 |
| 20260505063535 | 12 | 0 | 1.6 | 0.0 | 0.00 | 0.00 | 0.00 | 85 | 1019.0 |
| 20260505062534 | 12 | 0 | 1.6 | 0.0 | 0.00 | 0.00 | 0.00 | 85 | 1019.0 |
| 20260505061534 | 12 | 0 | 1.6 | 0.0 | 0.00 | 0.00 | 0.00 | 85 | 1019.0 |
| 20260505060533 | 12 | 0 | 1.6 | 0.0 | 0.00 | 0.00 | 0.00 | 85 | 1019.0 |
| 20260505055533 | 12 | 0 | 3.2 | 0.0 | 0.00 | 0.00 | 0.00 | 85 | 1019.0 |
| 20260505054532 | 12 | 0 | 3.2 | 0.0 | 0.00 | 0.00 | 0.00 | 86 | 1019.0 |
| 20260505053531 | 13 | 0 | 3.2 | 0.0 | 0.00 | 0.00 | 0.00 | 83 | 1019.0 |
| 20260505052531 | 13 | 0 | 3.2 | 0.0 | 0.00 | 0.00 | 0.00 | 82 | 1019.0 |
| 20260505051530 | 13 | 0 | 3.2 | 0.0 | 0.00 | 0.00 | 0.00 | 82 | 1019.0 |
| 20260505050530 | 13 | 110 | 9.7 | 0.0 | 0.00 | 0.00 | 0.00 | 78 | 1019.0 |
| 20260505041527 | 13 | 110 | 9.7 | 0.0 | 0.00 | 0.00 | 0.00 | 79 | 1020.0 |
| 20260505040526 | 13 | 110 | 9.7 | 0.0 | 0.00 | 0.00 | 0.00 | 79 | 1020.0 |
| 20260505035526 | 13 | 190 | 6.4 | 0.0 | 0.00 | 0.00 | 0.00 | 80 | 1020.0 |
| 20260505034526 | 13 | 190 | 6.4 | 0.0 | 0.00 | 0.00 | 0.00 | 80 | 1020.0 |
| 20260505033525 | 13 | 190 | 6.4 | 0.0 | 0.00 | 0.00 | 0.00 | 80 | 1020.0 |
| 20260505032524 | 13 | 190 | 6.4 | 0.0 | 0.00 | 0.00 | 0.00 | 80 | 1020.0 |
| 20260505031524 | 13 | 190 | 6.4 | 0.0 | 0.00 | 0.00 | 0.00 | 80 | 1020.0 |
| 20260505030523 | 13 | 190 | 6.4 | 0.0 | 0.00 | 0.00 | 0.00 | 79 | 1020.0 |
| 20260505025523 | 13 | 40 | 4.8 | 0.0 | 0.00 | 0.00 | 0.00 | 78 | 1020.0 |
| 20260505024522 | 13 | 40 | 4.8 | 0.0 | 0.00 | 0.00 | 0.00 | 78 | 1020.0 |
| 20260505023522 | 13 | 40 | 4.8 | 0.0 | 0.00 | 0.00 | 0.00 | 78 | 1020.0 |
| 20260505022521 | 13 | 40 | 4.8 | 0.0 | 0.00 | 0.00 | 0.00 | 77 | 1019.0 |
| 20260505021521 | 13 | 40 | 4.8 | 0.0 | 0.00 | 0.00 | 0.00 | 77 | 1019.0 |
| 20260505020520 | 13 | 40 | 4.8 | 0.0 | 0.00 | 0.00 | 0.00 | 77 | 1019.0 |
| 20260505015519 | 13 | 110 | 8.0 | 0.0 | 0.00 | 0.00 | 0.00 | 75 | 1019.0 |
| 20260505014519 | 13 | 110 | 8.0 | 0.0 | 0.00 | 0.00 | 0.00 | 75 | 1019.0 |
| 20260505013518 | 13 | 110 | 8.0 | 0.0 | 0.00 | 0.00 | 0.00 | 75 | 1019.0 |
| 20260505012518 | 13 | 110 | 8.0 | 0.0 | 0.00 | 0.00 | 0.00 | 75 | 1018.0 |
| 20260505011517 | 13 | 110 | 8.0 | 0.0 | 0.00 | 0.00 | 0.00 | 75 | 1018.0 |
| 20260505010516 | 13 | 110 | 8.0 | 0.0 | 0.00 | 0.00 | 0.00 | 75 | 1018.0 |
| 20260505005516 | 13 | 60 | 8.0 | 0.0 | 0.00 | 0.00 | 0.00 | 75 | 1018.0 |
| 20260505004515 | 13 | 60 | 8.0 | 0.0 | 0.00 | 0.00 | 0.00 | 75 | 1018.0 |
| 20260505003515 | 14 | 60 | 8.0 | 0.0 | 0.00 | 0.00 | 0.00 | 75 | 1018.0 |
| 20260505002514 | 14 | 60 | 8.0 | 0.0 | 0.00 | 0.00 | 0.00 | 75 | 1017.0 |
| 20260505001514 | 14 | 60 | 8.0 | 0.0 | 0.00 | 0.00 | 0.00 | 75 | 1017.0 |
| 20260505000513 | 14 | 60 | 8.0 | 0.0 | 0.00 | 0.00 | 0.00 | 75 | 1017.0 |
| 20260504235512 | 15 | 70 | 8.0 | 0.0 | 0.00 | 0.00 | 0.00 | 77 | 1017.0 |
| 20260504234512 | 15 | 70 | 8.0 | 0.0 | 0.00 | 0.00 | 0.00 | 77 | 1017.0 |
| 20260504233511 | 15 | 70 | 8.0 | 0.0 | 0.00 | 0.00 | 0.00 | 77 | 1017.0 |
| 20260504232511 | 14 | 110 | 4.8 | 6.4 | 0.00 | 0.00 | 0.00 | 72 | 1016.0 |
| 20260504231510 | 14 | 110 | 4.8 | 6.4 | 0.00 | 0.00 | 0.00 | 72 | 1016.0 |
| 20260504230510 | 14 | 110 | 4.8 | 6.4 | 0.00 | 0.00 | 0.00 | 72 | 1016.0 |
| 20260504225509 | 14 | 110 | 4.8 | 6.4 | 0.00 | 0.00 | 0.00 | 72 | 1016.0 |
| 20260504224509 | 16 | 70 | 8.0 | 0.0 | 0.00 | 0.00 | 0.00 | 68 | 1016.0 |
| 20260504223508 | 16 | 70 | 8.0 | 0.0 | 0.00 | 0.00 | 0.00 | 68 | 1016.0 |
| 20260504222507 | 15 | 122 | 4.8 | 8.0 | 0.00 | 0.00 | 0.00 | 71 | 1014.0 |
| 20260504221507 | 15 | 122 | 4.8 | 8.0 | 0.00 | 0.00 | 0.00 | 71 | 1015.0 |
| 20260504220506 | 15 | 122 | 4.8 | 8.0 | 0.00 | 0.00 | 0.00 | 73 | 1015.0 |
| 20260504215506 | 15 | 60 | 16.1 | 0.0 | 0.00 | 0.00 | 0.00 | 73 | 1015.0 |
| 20260504214505 | 15 | 60 | 16.1 | 0.0 | 0.00 | 0.00 | 0.00 | 73 | 1015.0 |
| 20260504213505 | 15 | 60 | 16.1 | 0.0 | 0.00 | 0.00 | 0.00 | 72 | 1014.0 |
| 20260504212504 | 15 | 60 | 16.1 | 0.0 | 0.00 | 0.00 | 0.00 | 72 | 1014.0 |
| 20260504211504 | 15 | 60 | 16.1 | 0.0 | 0.00 | 0.00 | 0.00 | 72 | 1014.0 |
| 20260504210503 | 15 | 60 | 16.1 | 0.0 | 0.00 | 0.00 | 0.00 | 70 | 1014.0 |
| 20260504205502 | 15 | 117 | 4.8 | 6.4 | 0.00 | 0.00 | 0.00 | 68 | 1014.0 |
| 20260504204502 | 15 | 117 | 4.8 | 6.4 | 0.00 | 0.00 | 0.00 | 68 | 1014.0 |
| 20260504203501 | 15 | 117 | 4.8 | 6.4 | 0.00 | 0.00 | 0.00 | 68 | 1014.0 |
| 20260504202501 | 15 | 100 | 4.8 | 6.4 | 0.00 | 0.00 | 0.00 | 68 | 1014.0 |
| 20260504201500 | 15 | 100 | 4.8 | 6.4 | 0.00 | 0.00 | 0.00 | 68 | 1014.0 |
| 20260504200500 | 15 | 100 | 4.8 | 6.4 | 0.00 | 0.00 | 0.00 | 71 | 1014.0 |
| 20260504195459 | 15 | 100 | 4.8 | 6.4 | 0.00 | 0.00 | 0.00 | 71 | 1014.0 |
| 20260504194459 | 15 | 120 | 8.0 | 0.0 | 0.00 | 0.00 | 0.00 | 78 | 1014.0 |
| 20260504193458 | 16 | 100 | 4.8 | 6.4 | 0.00 | 0.00 | 0.00 | 68 | 1014.0 |
| 20260504192457 | 17 | 120 | 4.8 | 9.7 | 0.00 | 0.00 | 0.00 | 69 | 1014.0 |
| 20260504191457 | 17 | 0 | 4.8 | 0.0 | 0.00 | 0.00 | 0.00 | 68 | 1014.0 |
| 20260504190456 | 17 | 0 | 4.8 | 0.0 | 0.00 | 0.00 | 0.00 | 68 | 1014.0 |
| 20260504185456 | 17 | 150 | 17.7 | 0.0 | 0.00 | 0.00 | 0.00 | 66 | 1014.0 |
| 20260504184455 | 17 | 150 | 17.7 | 0.0 | 0.00 | 0.00 | 0.00 | 66 | 1014.0 |
| 20260504183455 | 17 | 150 | 17.7 | 0.0 | 0.00 | 0.00 | 0.00 | 67 | 1014.0 |
| 20260504182454 | 17 | 150 | 17.7 | 0.0 | 0.00 | 0.00 | 0.00 | 67 | 1014.0 |
| 20260504181453 | 17 | 150 | 17.7 | 0.0 | 0.00 | 0.00 | 0.00 | 67 | 1014.0 |
| 20260504180453 | 17 | 120 | 9.7 | 0.0 | 0.00 | 0.00 | 0.00 | 66 | 1014.0 |
| 20260504175452 | 17 | 120 | 9.7 | 0.0 | 0.00 | 0.00 | 0.00 | 67 | 1014.0 |
| 20260504174452 | 17 | 120 | 9.7 | 0.0 | 0.00 | 0.00 | 0.00 | 69 | 1015.0 |
| 20260504173451 | 17 | 120 | 9.7 | 0.0 | 0.00 | 0.00 | 0.00 | 70 | 1015.0 |
| 20260504172450 | 17 | 120 | 9.7 | 0.0 | 0.00 | 0.00 | 0.00 | 71 | 1016.0 |
| 20260504171450 | 17 | 120 | 12.9 | 0.0 | 0.00 | 0.00 | 0.00 | 76 | 1016.0 |
| 20260504170449 | 17 | 120 | 12.9 | 0.0 | 0.00 | 0.00 | 0.00 | 76 | 1016.0 |
| 20260504160446 | 17 | 0 | 6.4 | 0.0 | 0.00 | 0.00 | 0.00 | 87 | 1016.0 |
| 20260504150443 | 17 | 0 | 1.6 | 0.0 | 0.00 | 0.00 | 0.00 | 99 | 1016.0 |
| 20260504140439 | 13 | 0 | 3.2 | 0.0 | 0.00 | 0.00 | 0.00 | 99 | 1017.0 |
| 20260504130436 | 11 | 360 | 4.8 | 0.0 | 0.00 | 0.00 | 0.00 | 99 | 1018.0 |
| 20260504110429 | 11 | 0 | 1.6 | 0.0 | 0.00 | 0.00 | 0.00 | 99 | 1018.0 |